ECMWFNIL_850_dewp_057.txt.gz
Dewpoint
9 8 8 8 7 7 7 7 7 7 7 7 6 6 7 8 8 8 9 9 9 9 9 9 9 9 9 8 8 8 9 10 12 13 13 13 13 14 14 15 15 14
11 10 10 9 9 9 9 9 9 9 9 8 7 7 7 8 8 8 9 9 9 9 9 9 9 9 8 8 8 8 8 9 10 12 12 13 13 14 14 14 15 15
13 12 12 11 11 10 10 10 10 10 10 9 9 7 7 8 8 9 9 9 9 9 9 8 8 8 8 8 7 7 7 8 8 10 11 12 12 13 13 14 14 15
13 13 13 12 11 11 11 10 10 10 10 10 9 8 7 7 8 9 9 9 9 9 9 9 8 8 7 8 7 7 7 7 8 8 10 11 12 12 12 13 13 14
14 13 13 13 12 12 11 11 10 9 9 9 9 8 8 7 7 8 9 9 8 9 9 9 9 8 8 8 7 6 7 7 8 8 9 10 11 11 11 11 12 12
14 14 14 13 13 12 11 10 9 9 8 8 8 8 8 8 7 8 8 8 8 8 9 9 9 9 8 8 8 6 7 8 8 8 8 9 9 9 10 10 10 11
14 14 14 14 14 13 12 11 9 9 8 8 8 8 8 8 8 8 8 8 8 8 8 8 8 8 9 8 8 7 7 8 8 8 8 8 8 8 8 8 9 9
13 13 14 14 14 14 13 11 9 8 8 8 8 8 8 9 8 8 8 8 8 8 7 7 7 8 9 9 8 8 7 7 7 8 8 8 8 7 7 7 8 8
13 13 14 14 14 14 13 12 10 9 8 8 8 8 8 8 8 8 7 7 8 7 7 7 7 7 9 9 8 8 8 7 7 7 8 8 8 8 7 7 8 7
13 13 13 14 14 14 14 13 12 11 9 8 8 8 7 7 8 8 7 7 7 7 6 6 6 6 7 9 9 8 8 8 8 8 8 8 8 8 7 8 8 7
13 13 13 13 14 14 14 13 13 12 11 10 9 8 7 6 7 7 7 7 6 6 6 5 5 5 6 7 8 8 8 8 8 7 7 7 7 7 7 7 6 6
13 13 13 13 13 13 13 13 13 13 12 11 11 9 7 6 6 6 6 6 5 5 5 5 4 4 5 6 6 7 7 7 7 7 7 7 6 6 6 5 5 5
13 13 13 13 13 13 13 13 13 13 13 12 12 10 9 7 6 5 5 5 5 5 5 4 4 4 4 4 5 6 6 5 5 6 6 6 5 5 5 5 4 4
12 13 13 13 13 13 13 13 13 13 13 13 12 11 9 8 6 6 5 5 5 5 4 4 4 3 3 3 4 5 5 4 4 4 5 5 5 5 5 4 4 4
12 12 12 13 13 13 13 13 13 13 13 13 12 11 10 8 7 6 6 5 5 5 5 4 4 3 3 2 3 3 3 3 3 2 3 3 4 4 4 4 4 4
12 12 12 12 13 13 13 13 13 13 13 13 13 12 12 10 8 7 6 5 5 5 5 5 4 3 2 2 2 2 2 2 2 2 2 2 2 2 3 3 3 4
12 12 12 12 13 13 13 13 13 13 13 13 13 13 13 11 10 9 7 5 4 5 5 5 4 2 2 1 2 2 2 2 2 1 1 1 1 2 2 3 3 3
12 12 12 12 13 13 13 13 13 13 13 14 14 14 13 12 12 10 7 5 5 4 4 4 3 2 2 2 2 1 2 2 2 1 1 1 1 1 2 2 3 3
13 13 13 12 13 13 13 13 13 13 13 13 14 14 14 14 13 12 9 7 6 4 3 4 3 3 2 2 2 1 1 2 2 1 2 1 2 2 2 2 3 3
13 13 13 13 12 13 13 13 13 13 13 13 14 14 14 14 14 14 12 10 9 6 5 5 4 3 3 2 2 1 1 2 2 2 2 2 2 2 2 2 2 3
13 13 13 13 12 13 13 13 13 13 13 13 14 14 14 14 14 14 14 13 12 11 9 7 5 4 3 3 3 2 2 3 3 3 3 3 3 2 2 3 3 3
13 13 13 13 13 13 13 13 13 13 13 13 14 14 14 14 14 15 15 14 14 13 13 10 7 5 4 3 3 3 4 5 4 4 4 4 3 3 3 3 3 4
13 13 13 12 13 13 13 13 13 13 13 13 14 14 14 14 14 14 15 15 15 15 14 12 9 7 6 5 5 5 6 6 5 5 5 5 4 4 4 4 4 4
12 12 12 12 13 13 13 13 13 13 13 14 14 14 14 14 14 15 15 15 15 16 15 14 12 11 9 8 8 8 8 8 8 7 7 6 5 5 5 5 5 5
12 12 13 13 13 13 13 13 13 13 14 14 14 14 15 15 15 15 15 16 16 16 16 16 15 15 13 11 11 11 11 11 11 11 10 9 7 6 6 5 6 6
13 13 13 13 13 13 13 14 14 14 14 14 15 15 15 15 15 16 16 16 17 17 17 17 17 16 15 13 13 13 13 13 13 13 12 11 9 8 7 7 7 7

ECMWFNIL_850_dewp_060.txt.gz
Dewpoint
6 6 6 5 5 5 5 4 3 4 3 2 4 5 6 6 6 8 8 8 11 12 11 11 12 12 12 12 12 12 12 12 11 10 12 13 13 15 15 16 16 15
8 7 7 7 7 6 5 5 4 5 4 3 4 5 5 5 6 6 7 8 10 12 11 11 12 12 13 12 11 11 12 13 11 9 10 12 13 14 15 16 16 15
10 9 9 8 8 7 5 5 5 6 6 4 5 6 6 6 6 6 7 8 9 10 10 11 12 12 12 12 11 11 12 12 11 9 9 11 12 13 15 16 16 16
11 10 9 9 9 8 6 6 6 6 7 6 6 7 7 8 7 6 7 8 8 9 9 10 11 11 12 12 11 12 11 11 11 9 8 10 11 11 13 14 15 16
12 11 10 9 9 9 8 7 8 7 7 7 8 8 8 8 8 6 6 7 8 9 8 9 10 11 11 11 11 12 11 11 11 10 8 9 10 10 11 12 13 13
13 13 12 11 10 10 10 9 8 8 9 9 9 9 9 9 8 7 6 6 7 8 8 8 9 9 9 10 11 12 11 11 12 11 9 9 8 8 10 11 11 11
14 13 13 12 12 12 11 11 10 10 10 10 10 9 9 9 7 6 6 6 7 8 9 8 8 8 8 9 11 11 10 11 11 10 10 10 8 8 9 9 9 9
13 14 13 13 13 13 13 12 12 11 11 10 10 10 9 8 8 7 6 6 6 7 8 8 8 8 8 9 10 10 8 8 9 8 9 10 9 8 8 8 8 8
13 13 13 13 13 13 13 13 12 11 11 10 10 9 8 8 8 8 6 6 6 7 7 8 8 8 7 9 9 8 7 7 8 7 8 11 10 7 9 9 10 9
13 13 13 13 14 14 13 13 13 13 11 10 9 9 9 8 7 7 7 6 6 6 7 7 7 7 7 7 7 6 7 7 7 7 7 10 10 8 8 11 11 11
12 13 13 13 13 14 14 14 15 15 13 10 8 9 10 8 7 7 7 7 6 6 6 6 6 6 6 6 6 6 7 6 7 7 7 8 9 8 8 9 10 11
12 12 13 13 13 14 15 15 15 16 15 12 8 8 9 8 8 7 7 7 6 5 6 5 6 6 5 5 5 5 6 6 7 7 6 7 9 8 8 8 8 8
11 12 13 13 13 13 15 16 16 16 16 14 10 7 9 9 8 7 6 6 6 6 6 6 5 6 5 5 5 5 5 6 6 6 7 6 7 6 7 7 7 6
11 12 12 12 13 12 14 15 16 16 16 16 13 9 9 10 9 8 6 5 6 6 6 6 5 5 5 5 5 4 4 5 6 6 6 5 5 5 6 7 6 5
11 13 12 12 12 12 13 14 15 15 16 16 13 10 10 11 11 11 9 6 5 5 5 5 5 5 5 5 4 3 3 3 4 5 5 5 5 5 5 6 6 6
12 12 12 11 12 12 12 13 13 14 14 14 13 12 11 12 12 13 13 10 6 4 5 5 4 4 4 4 3 3 2 2 3 4 4 5 4 4 4 4 4 4
11 11 11 11 11 11 12 12 13 13 13 13 13 12 12 12 12 12 13 14 12 6 4 4 4 4 3 2 3 3 2 2 2 3 3 4 4 4 3 3 2 2
11 11 11 11 11 11 11 12 12 13 13 13 13 13 12 13 13 12 13 14 14 12 8 6 4 4 3 2 2 2 2 1 1 2 2 2 3 2 2 1 1 1
11 11 11 11 11 11 11 12 12 12 13 13 13 13 13 13 13 13 13 13 14 14 12 9 7 5 3 3 3 2 2 1 1 1 1 1 1 1 1 0 0 1
12 11 11 12 11 11 11 11 12 12 12 13 13 13 13 13 13 13 13 13 13 13 12 10 9 7 3 2 3 2 1 1 1 1 1 2 1 0 0 0 -0 1
12 12 12 12 12 11 11 11 11 12 12 13 13 13 13 13 13 13 13 14 13 14 13 11 10 8 4 1 2 2 2 2 2 2 3 2 2 1 0 -0 0 0
12 12 12 12 12 12 11 11 11 12 12 13 13 13 13 13 13 13 13 13 13 14 13 13 11 10 6 2 1 2 3 3 3 4 4 3 2 2 1 1 0 0
12 12 12 12 12 12 12 12 12 12 12 12 13 13 13 13 13 13 13 13 14 14 13 13 13 12 9 5 4 3 4 4 3 4 4 3 2 2 2 1 1 0
12 12 12 12 12 12 12 12 12 12 12 12 12 13 13 13 13 13 13 13 13 14 14 13 13 13 11 9 8 7 7 6 6 6 5 4 3 3 3 2 2 1
11 11 12 12 12 13 13 12 13 12 12 12 12 12 13 13 13 13 13 13 13 14 14 14 13 14 13 12 11 11 10 10 10 10 8 6 5 4 4 3 2 2
11 11 12 12 13 13 13 13 13 12 12 12 12 12 13 12 13 13 13 13 13 14 14 14 14 14 14 13 12 12 12 12 12 12 11 8 7 6 6 5 3 2

ECMWFNIL_850_dewp_063.txt.gz
Dewpoint
5 3 2 1 0 1 6 8 6 2 1 7 11 11 12 14 14 13 16 16 13 11 11 11 11 11 12 12 11 12 12 12 13 15 15 14 15 17 18 17 18 18
8 6 4 4 3 1 4 8 8 4 -0 1 7 12 14 15 14 11 13 15 14 13 12 11 11 11 12 13 12 11 12 12 11 14 15 14 14 16 18 18 18 18
10 8 7 5 5 3 3 6 6 4 2 0 0 7 13 15 14 11 10 12 13 13 13 11 10 11 12 13 12 11 12 12 11 13 14 13 13 15 17 18 18 18
11 10 8 6 6 5 4 6 7 4 4 4 2 3 9 13 15 14 9 7 10 11 12 12 11 12 12 12 12 12 11 12 12 12 13 12 11 13 16 17 17 18
11 10 9 7 7 7 6 7 9 8 5 6 6 6 8 9 13 15 12 7 6 7 10 12 11 11 12 11 11 12 11 12 13 12 12 12 12 12 15 16 17 17
10 9 9 8 7 7 8 7 8 9 8 7 8 11 12 9 8 13 14 10 7 7 10 13 12 11 12 11 9 10 11 13 15 15 12 12 12 14 15 16 16 16
9 8 8 8 8 8 9 9 7 9 9 9 10 12 14 13 8 8 11 11 9 9 10 14 14 12 13 14 11 9 9 11 14 15 14 12 12 13 15 16 16 16
9 8 8 8 9 9 9 9 9 8 8 9 12 13 14 15 12 8 7 9 10 11 10 13 14 12 12 15 14 10 9 8 10 13 12 11 12 12 12 14 16 15
11 11 10 10 11 11 11 11 12 10 7 7 11 14 14 14 14 12 8 7 8 9 9 10 12 10 9 13 14 10 8 8 11 12 10 8 10 12 11 12 14 13
12 13 13 13 14 14 13 14 15 13 10 7 9 14 15 14 15 14 12 8 6 7 7 5 8 9 7 9 10 9 7 6 9 13 13 10 8 10 12 13 14 14
13 14 15 15 15 15 15 15 16 15 14 11 10 13 15 15 15 14 13 10 6 5 6 5 5 6 7 8 9 8 6 5 6 9 11 10 9 9 11 14 15 16
15 16 17 16 15 16 16 16 16 16 16 14 13 13 15 16 16 14 12 10 6 4 5 5 4 5 6 7 10 11 10 7 8 10 9 8 7 7 8 10 13 14
16 16 16 17 16 16 16 16 16 15 15 16 15 15 15 15 16 15 12 8 6 5 5 4 4 4 6 6 8 12 12 9 10 13 13 11 8 6 8 11 12 13
16 16 16 16 17 16 15 16 16 15 14 15 16 16 16 15 15 16 14 11 7 6 5 5 4 3 5 6 4 7 10 9 7 9 13 14 12 9 10 12 14 15
16 17 17 16 16 16 16 16 16 15 15 15 16 16 16 15 15 16 16 15 12 8 6 6 7 4 3 5 5 4 6 7 5 3 7 13 14 13 13 13 13 14
16 16 16 16 16 15 15 15 16 16 15 15 16 16 16 16 15 15 16 17 16 13 8 6 7 7 4 3 4 4 4 5 5 3 1 6 10 12 13 14 14 13
16 15 15 16 15 15 15 15 15 16 16 15 16 16 16 16 16 15 15 16 17 17 14 9 7 7 5 3 3 3 3 4 3 3 2 1 4 6 8 9 11 13
16 15 15 15 14 15 14 13 13 15 16 16 16 17 17 17 16 16 15 15 16 17 17 15 12 9 5 3 3 2 2 3 3 3 3 2 1 3 3 3 5 9
16 15 15 14 14 14 13 11 12 14 15 17 17 18 18 17 15 16 16 16 16 17 17 17 16 14 8 3 2 3 2 3 3 3 4 5 5 3 2 1 1 3
16 15 14 14 13 13 12 11 10 11 14 17 18 18 17 15 14 15 16 16 15 16 17 18 17 17 14 7 2 2 3 3 4 5 6 10 11 8 5 2 0 0
17 16 15 14 13 13 12 11 10 10 12 15 17 17 16 13 12 14 15 15 14 15 17 18 17 17 17 13 7 2 3 3 4 5 6 8 10 9 6 2 1 -1
18 17 16 14 13 12 11 10 10 10 10 13 16 17 17 14 12 13 15 14 13 13 15 17 17 16 16 15 11 5 4 5 4 5 4 4 5 5 3 1 -0 -1
18 17 16 15 13 12 11 10 10 10 10 12 14 16 17 16 14 12 13 14 14 13 12 14 16 15 14 13 12 9 7 6 4 4 4 4 3 3 2 1 0 -1
18 17 16 15 13 12 11 11 10 10 11 11 12 13 15 16 15 14 14 14 14 13 12 12 14 14 13 12 11 11 9 7 6 6 6 5 3 3 2 2 1 -1
18 17 16 15 13 12 11 11 11 10 10 11 11 12 13 16 17 17 16 15 15 14 13 11 12 14 13 12 11 11 10 9 9 9 9 7 5 5 4 2 1 1
17 17 16 15 14 12 12 12 11 11 11 11 11 12 14 16 18 18 18 17 16 16 15 14 13 13 13 12 11 11 10 11 12 11 11 9 6 6 7 5 3 2

ECMWFNIL_850_dewp_069.txt.gz
Dewpoint
2 3 4 3 3 4 4 5 7 8 7 7 6 4 3 3 5 7 8 9 10 10 9 10 12 13 12 12 14 16 15 13 12 12 13 13 13 14 15 15 16 16
1 1 2 2 2 2 2 2 3 4 3 2 1 1 1 1 2 4 7 9 10 10 10 9 10 11 11 11 12 14 13 12 11 10 11 11 12 13 14 15 15 16
-0 0 1 2 2 1 1 1 1 1 1 0 0 -0 0 1 1 3 7 9 9 9 9 10 9 9 10 10 10 11 11 11 11 10 9 10 10 11 13 15 16 16
0 0 -0 0 1 1 1 0 0 0 0 0 1 -0 -0 0 0 2 6 8 7 6 8 9 9 9 10 9 8 9 10 10 10 10 9 9 9 10 11 13 15 17
3 1 -0 -1 -1 0 1 1 1 0 1 1 1 1 1 1 1 2 5 8 6 4 5 6 7 8 10 10 9 8 9 9 9 9 9 9 9 9 9 11 14 16
6 4 1 0 -1 -1 -0 -0 -1 -0 -0 0 0 0 2 4 4 4 5 7 7 5 4 4 5 6 7 9 9 8 8 8 9 9 9 9 10 9 9 9 11 13
8 7 4 3 1 0 -1 -1 -1 -2 -2 -2 -1 -0 1 5 7 7 7 9 9 7 5 3 3 4 6 6 7 8 8 8 8 8 8 8 9 9 9 9 9 10
10 9 7 5 3 2 1 0 -1 -2 -2 -2 -2 -2 -2 1 5 8 10 11 11 10 7 5 4 4 5 5 6 6 7 8 8 7 8 8 8 8 8 9 8 8
12 10 8 7 6 5 4 3 1 0 -0 -2 -2 -2 -3 -2 1 5 7 9 11 11 8 6 5 4 4 4 5 5 6 6 7 7 7 7 7 8 8 9 9 8
15 13 11 9 8 7 5 4 3 2 2 0 -1 -1 -2 -2 -2 1 4 7 8 9 8 7 6 5 4 4 4 5 5 5 6 6 6 6 6 6 7 8 9 9
16 15 14 11 9 8 7 6 5 4 3 2 1 0 -0 -0 -1 0 3 6 7 7 6 6 5 4 4 4 3 4 5 5 5 5 5 6 6 6 6 7 7 7
17 16 15 13 11 9 8 7 6 5 4 3 2 2 1 1 2 2 4 6 7 7 6 5 5 5 4 4 4 4 4 5 5 5 5 5 5 5 5 6 5 5
18 17 16 14 12 11 9 8 8 7 6 4 3 3 3 3 4 4 5 6 7 8 7 7 6 7 7 6 6 5 4 4 5 5 5 5 4 4 4 4 4 4
18 18 17 15 13 12 11 10 9 8 7 5 5 4 4 5 5 5 6 6 7 8 8 8 8 9 9 8 8 6 5 4 4 5 5 5 5 4 4 3 2 3
18 18 18 16 14 13 11 11 10 9 9 8 7 6 5 5 6 6 7 8 8 9 9 10 10 10 10 9 8 7 6 5 5 5 5 5 5 5 4 4 2 2
19 19 18 17 16 14 12 11 11 11 11 10 9 7 7 7 7 8 9 9 9 10 10 11 11 11 10 9 8 7 6 5 5 5 5 5 5 6 6 5 3 2
19 19 18 18 17 15 13 11 11 11 12 11 10 9 9 9 9 10 11 11 11 10 11 11 11 10 9 9 9 8 8 7 6 5 5 6 6 5 5 4 4 3
19 19 18 18 17 16 14 12 11 11 11 11 11 10 10 11 11 11 12 13 12 12 12 12 11 10 8 8 8 8 8 8 7 6 6 6 6 6 4 5 4 4
19 19 19 18 17 17 15 13 12 11 11 11 11 11 11 12 12 13 13 13 13 13 13 13 12 11 11 10 9 8 7 7 7 7 7 6 6 5 5 5 5 5
19 19 18 18 17 17 16 15 14 12 11 10 11 12 12 13 13 13 13 14 14 14 14 14 14 13 12 11 11 10 9 8 8 8 7 7 6 5 5 5 6 6
19 18 18 18 17 17 17 16 15 13 12 12 12 13 13 13 14 14 14 14 14 15 15 15 15 14 13 12 12 11 10 10 11 10 10 9 8 7 6 5 6 6
18 18 18 18 17 17 17 17 16 15 14 13 14 14 14 14 14 15 15 15 14 15 15 15 15 15 14 14 13 11 11 12 13 13 12 11 9 8 7 6 6 6
18 18 18 17 17 17 17 17 17 16 14 14 15 15 15 15 15 15 15 15 14 14 15 15 15 15 15 15 14 13 14 14 14 14 14 12 10 9 9 9 8 8
17 18 17 17 17 17 17 17 17 16 16 15 15 15 15 15 15 15 15 15 15 14 14 14 15 15 15 15 15 15 15 15 15 15 15 13 11 11 11 11 10 10
16 18 18 17 17 17 17 17 17 17 16 15 15 15 16 16 15 15 15 15 15 14 14 13 14 14 15 16 16 16 16 16 16 16 16 14 11 10 11 12 11 10
16 17 18 17 17 17 17 17 17 17 17 16 16 15 16 16 16 15 15 15 15 15 14 14 14 14 14 15 16 16 16 16 16 16 16 14 11 10 10 11 10 9

ECMWFNIL_850_dewp_072.txt.gz
Dewpoint
7 8 10 10 9 9 9 8 9 10 9 9 10 11 9 9 10 10 10 10 10 10 10 10 11 12 13 14 13 13 14 14 14 13 13 14 13 13 13 13 15 16
6 8 9 10 9 8 8 7 7 8 8 8 8 10 10 9 10 9 9 10 10 10 10 10 10 11 12 13 12 12 13 13 13 13 14 14 13 14 14 14 15 16
5 7 9 9 8 7 7 6 6 5 5 6 6 7 8 7 7 7 7 8 9 10 10 9 9 10 11 12 12 12 12 11 11 11 12 12 13 13 14 14 14 15
3 5 7 7 6 5 6 6 5 4 2 3 4 4 4 4 3 3 4 5 7 9 9 9 8 9 10 11 11 11 11 11 10 10 10 10 11 12 13 14 14 14
2 3 5 6 5 4 5 5 5 3 2 1 1 1 2 1 0 0 1 2 4 7 9 10 9 9 9 9 9 10 10 10 10 10 10 9 9 10 11 13 14 14
1 1 2 4 4 3 4 4 3 3 2 1 0 0 1 1 0 -0 1 1 1 4 7 8 8 9 9 9 9 9 9 9 9 10 10 9 9 9 10 10 12 14
3 1 1 2 2 2 3 2 2 2 2 1 1 1 0 0 1 0 -1 0 1 1 3 5 6 6 8 9 9 9 8 8 8 9 9 9 9 9 9 9 10 12
6 3 1 1 1 2 1 1 1 1 1 1 1 1 1 0 0 0 0 -0 0 1 2 2 3 4 5 7 8 8 8 8 8 9 9 9 9 9 9 9 9 9
11 8 5 3 1 1 0 0 1 0 0 1 1 0 0 0 0 0 0 -0 -0 0 1 2 3 3 4 4 5 6 6 7 7 8 8 8 8 9 9 9 9 9
13 12 10 7 4 2 1 0 0 -0 -1 -1 -0 -0 -0 -0 0 -0 -0 -0 -0 -1 -0 1 2 3 3 3 4 5 5 6 6 6 6 7 7 8 8 9 9 9
14 13 12 10 7 5 3 2 1 -0 -1 -2 -2 -2 -2 -2 -1 -1 -1 -1 -1 -1 -1 -1 0 1 1 1 2 3 4 5 5 6 6 5 6 6 7 8 9 9
15 14 14 12 10 8 6 5 4 2 1 0 -0 -1 -1 -2 -2 -2 -2 -2 -2 -1 -1 -2 -1 -0 0 1 1 1 2 3 4 5 5 5 5 5 6 7 7 8
16 15 15 13 12 11 10 8 7 5 4 2 2 1 1 -1 -1 -1 -2 -2 -2 -2 -2 -2 -1 -1 0 0 1 2 2 3 3 4 5 5 5 5 5 5 6 7
17 16 16 15 14 13 12 11 9 8 7 5 4 3 3 2 1 -0 -1 -1 -1 -2 -2 -2 -1 -0 -0 1 1 2 3 3 3 3 4 5 5 5 4 4 5 5
17 17 16 16 16 15 14 13 12 10 9 8 7 6 5 4 3 2 1 1 -0 -1 -1 -1 -1 -0 -0 1 1 3 4 4 4 4 4 4 5 5 5 4 4 4
17 17 17 17 17 16 16 15 14 13 11 10 9 8 7 6 4 4 3 2 1 0 -1 -0 -0 -0 0 0 1 2 4 5 4 5 5 5 5 5 5 5 4 4
18 18 18 18 18 18 17 17 16 15 14 13 11 10 9 8 7 6 4 3 3 1 1 1 1 0 0 1 2 3 4 5 5 5 5 6 6 6 5 4 4 4
18 18 18 18 18 18 17 17 17 16 16 15 13 12 11 10 9 8 7 5 4 3 3 3 2 2 1 2 2 3 4 6 6 6 6 6 6 5 4 4 4 4
18 18 18 18 18 18 18 17 17 17 17 16 15 13 13 12 11 10 9 8 7 6 5 4 4 3 3 3 3 4 6 8 8 8 7 7 6 5 5 4 3 3
18 19 19 19 19 19 18 18 18 17 17 16 16 15 14 13 13 12 11 10 9 8 7 6 5 4 4 4 5 6 8 9 10 10 10 9 7 6 5 5 4 4
18 18 18 19 19 19 19 19 18 17 17 17 16 15 15 14 14 13 12 11 10 10 9 8 7 6 5 5 6 8 9 11 11 12 12 11 9 8 7 6 5 5
16 16 17 18 19 19 19 19 19 18 18 17 16 16 15 15 14 14 14 13 12 11 11 10 8 8 8 7 8 9 11 12 13 13 13 13 11 9 7 5 5 5
16 16 17 18 18 18 19 19 19 19 18 18 17 17 16 15 15 15 15 14 13 12 11 10 10 9 9 9 9 11 12 13 14 14 14 14 12 10 7 5 5 5
16 16 16 17 18 18 18 18 19 19 19 18 18 17 16 16 16 15 15 15 14 13 11 11 11 11 10 10 10 12 14 15 15 14 14 14 13 10 8 6 4 4
17 17 17 17 17 17 17 18 18 19 18 18 18 17 17 16 16 16 15 15 14 14 13 12 12 11 12 11 11 13 14 15 15 15 14 14 12 10 8 6 5 4
17 17 17 17 17 17 17 18 18 19 19 18 18 18 17 16 16 16 15 15 14 15 14 14 13 13 13 13 12 13 14 15 15 16 15 15 13 10 8 6 5 3

ECMWFNIL_850_dewp_075.txt.gz
Dewpoint
7 7 8 8 8 7 6 7 7 7 8 9 9 9 9 8 8 9 10 10 9 9 9 10 11 12 12 13 13 14 15 15 16 16 15 14 14 14 14 14 14 13
6 7 7 8 8 7 6 7 7 7 6 7 8 9 8 7 8 9 9 9 9 9 9 9 10 11 11 12 12 13 14 15 15 15 15 14 14 14 13 13 13 14
6 7 6 7 7 7 7 7 8 8 6 6 7 8 8 7 7 8 9 9 9 9 9 10 10 10 10 11 11 11 13 13 14 14 14 13 14 14 13 13 13 14
6 7 7 7 7 7 7 7 8 8 7 6 6 7 8 8 7 8 9 9 10 10 10 10 10 9 9 10 11 11 11 12 13 13 13 13 14 13 13 14 14 14
6 6 6 6 6 6 7 7 7 8 7 6 5 6 7 7 8 8 8 9 9 9 9 10 10 10 9 10 10 10 11 11 12 13 12 12 12 12 12 13 14 14
7 6 6 6 6 6 6 6 7 7 7 6 5 5 6 7 7 7 7 6 5 6 7 8 8 9 9 9 10 10 10 10 11 12 12 11 11 11 11 11 12 13
8 6 6 6 6 6 6 6 6 7 6 5 5 4 4 4 4 5 4 3 2 2 3 5 7 8 9 9 9 9 9 10 11 11 11 10 10 11 10 10 11 11
11 9 7 7 6 6 6 6 7 6 6 6 5 3 2 2 2 2 2 1 0 0 1 2 4 6 8 9 8 9 9 9 10 10 10 10 10 10 10 10 10 10
13 12 10 8 6 6 6 6 6 6 6 7 5 4 2 2 1 1 1 1 0 0 -0 -0 1 3 5 6 7 7 8 9 9 10 10 10 9 9 9 9 10 9
14 13 13 11 8 5 5 6 6 7 7 7 6 5 4 2 1 1 1 1 -0 1 -0 -0 0 0 1 3 4 4 6 6 8 9 9 9 9 9 9 9 9 9
15 14 14 13 10 6 4 5 6 7 8 8 7 7 5 3 2 1 0 0 -0 1 1 -0 0 -0 -0 0 1 2 3 4 6 7 7 8 8 8 8 9 9 8
15 15 15 14 12 9 6 3 4 6 7 8 7 7 6 4 3 2 1 1 0 1 1 0 0 0 -0 -0 -0 0 2 3 4 4 5 5 6 6 7 8 8 8
15 15 15 15 14 12 10 6 4 3 4 5 6 6 6 4 3 2 1 1 0 0 1 1 1 0 -0 -1 -1 -1 -0 1 2 3 4 4 5 5 6 6 7 7
15 15 16 15 15 14 13 11 8 5 3 2 3 4 4 3 2 1 1 0 -0 -0 -0 -0 -1 -1 -1 -1 -2 -2 -1 -1 -0 1 1 2 3 4 5 5 6 6
16 15 16 16 15 15 15 14 12 10 8 6 5 4 3 3 2 2 1 -0 -1 -1 -2 -1 -1 -2 -2 -2 -2 -3 -3 -2 -1 -1 -0 -0 1 2 3 5 5 5
16 16 16 16 16 16 16 15 15 14 12 10 9 7 6 5 4 3 2 2 0 -0 -1 -1 -1 -2 -2 -3 -3 -3 -4 -3 -2 -1 -1 -1 1 2 2 3 4 4
16 16 16 16 16 16 16 16 16 15 15 14 12 11 10 8 7 6 5 4 3 2 2 2 1 0 -0 -2 -2 -3 -3 -3 -3 -2 -1 -1 0 1 2 2 2 3
16 16 16 16 16 16 16 16 16 16 16 15 15 14 13 12 11 9 8 8 7 6 5 4 4 3 2 1 0 -1 -1 -2 -2 -2 -1 0 1 2 2 3 3 3
16 16 16 16 16 16 16 16 16 16 16 16 16 16 15 14 14 13 12 11 10 9 8 7 6 5 4 3 2 1 -0 -1 -1 -1 -0 1 2 3 4 4 4 4
16 16 16 16 16 16 16 16 16 16 17 17 17 17 17 16 16 15 14 13 12 11 10 9 8 7 6 5 4 2 2 1 0 2 2 3 4 4 5 6 5 5
17 17 17 17 17 17 17 17 17 17 17 17 17 18 17 17 17 16 16 15 14 13 12 11 10 9 7 7 5 4 3 3 3 4 4 5 5 6 7 7 7 7
17 17 17 17 17 17 17 17 17 17 17 17 18 18 18 18 17 17 16 15 15 14 14 12 10 9 9 7 6 6 6 6 6 6 6 7 6 7 8 9 9 8
17 17 17 17 17 17 17 17 17 17 17 18 18 18 18 18 18 17 17 16 15 14 14 12 11 10 9 8 7 7 8 8 8 8 8 8 7 8 9 10 11 10
17 17 17 17 17 18 18 17 18 18 18 18 18 18 18 18 18 18 18 17 15 14 13 12 12 10 10 9 8 8 9 10 10 10 10 9 9 9 10 11 12 12
17 17 17 17 18 18 18 18 18 18 18 18 18 18 18 18 19 18 18 18 17 15 13 13 12 11 10 10 9 9 10 11 11 11 11 11 10 10 11 12 13 13
17 17 17 17 17 17 17 18 17 18 18 18 18 18 18 18 18 18 18 18 18 17 16 15 14 12 11 10 9 9 10 11 12 12 12 12 11 12 12 13 13 13